User: anonymous   Login
Location: ??????
(38.1303°N, 24.0039°E)
Time: 19:56:45
(UTC+00:00)
Language:

3B5GSAT - Orbit

View from above orbital plane
View from above orbital plane
View from above satellite
View from above satellite

Ground track
Ground track

The orbit data is extracted from the following two-line orbital elements,

1 47961U 21022AF  22024.44578045  .00003144  00000-0  21336-3 0  9991
2 47961  97.5455 287.1901 0019111 278.8113  81.0951 15.06992951 45139
Epoch (UTC): 24 January 2022 10:41:55
Eccentricity: 0.0019111
inclination: 97.5455°
perigee height: 532 km
apogee height: 558 km
right ascension of ascending node: 287.1901°
argument of perigee: 278.8113°
revolutions per day: 15.06992951
mean anomaly at epoch: 81.0951°
orbit number at epoch: 4513

The dashed part of the orbit path shows where the satellite is in the earth's shadow,  

DLR